Regional Weather Roundup
Issued by NWS

Home | Current Version | Previous Version | Graphics & Text | Print | Product List | Glossary On
Versions: 1 2 3 4 5 6 7 8 9 10 11 12 13 14 15 16 17 18 19 20 21 22 23 24 25 26 27 28 29 30 31 32 33 34 35 36 37 38 39 40 41 42 43 44 45 46 47 48 49 50
000
ASUS43 KMKX 250000
RWRWI

WISCONSIN REGIONAL WEATHER ROUNDUP
NATIONAL WEATHER SERVICE MILWAUKEE/SULLIVAN WI
700 PM CDT FRI APR 24 2015

NOTE: "FAIR" INDICATES FEW OR NO CLOUDS BELOW 12,000 FEET WITH NO
SIGNIFICANT WEATHER AND/OR OBSTRUCTIONS TO VISIBILITY.

WIZ001-002-006>008-014>016-023>028-250100-
NORTHWEST WISCONSIN

CITY           SKY/WX    TMP DP  RH WIND       PRES   REMARKS
SUPERIOR ARPT  CLOUDY    36  31  83 NE14G22   29.93S WCI  27
ASHLAND        CLOUDY    39  30  70 NE10      29.96S WCI  32
6HR MIN TEMP:  39; 6HR MAX TEMP:  45;

HAYWARD        CLOUDY    40  33  76 E13G22    29.89S WCI  32
6HR MIN TEMP:  37; 6HR MAX TEMP:  41; 6HR PCP: TRACE;

SIREN          CLOUDY    48  27  44 E8        29.85S
CUMBERLAND     CLOUDY    46  28  49 E10       29.85R
RICE LAKE      CLOUDY    51  26  36 SE13      29.87R
CHETEK         CLOUDY    51  29  43 SE10      29.86S
LADYSMITH      CLOUDY    47  26  44 E10       29.90R
6HR MIN TEMP:  47; 6HR MAX TEMP:  52;

EAU CLAIRE     NOT AVBL
MENOMONIE      DRIZZLE   48  34  58 SE14      29.86S
6HR MIN TEMP:  48; 6HR MAX TEMP:  57;

NEW RICHMOND   CLOUDY    47  34  60 SE9G20    29.84S
OSCEOLA        LGT RAIN  49  36  61 SE10G16   29.86S
$$

WIZ003>005-009-010-017-018-250100-
NORTH CENTRAL WISCONSIN

CITY           SKY/WX    TMP DP  RH WIND       PRES   REMARKS
MANITOWISH WTR CLOUDY    39  32  75 CALM      29.94S
ARBOR VITAE    DRIZZLE   42  31  65 SE6       29.94R
WOODRUFF       DRIZZLE   42  31  65 SE6       29.94R
RHINELANDER    CLOUDY    45  24  43 E10       29.94R
6HR MIN TEMP:  44; 6HR MAX TEMP:  47; 6HR PCP: TRACE;

EAGLE RIVER    CLOUDY    44  21  39 SW7       29.94R
LAND O LAKES   CLOUDY    45  26  47 CALM      29.94S
PHILLIPS       CLOUDY    42  29  60 NE12      29.89F
6HR MIN TEMP:  42; 6HR MAX TEMP:  44;

TOMAHAWK       CLOUDY    46  23  40 NE8       29.92R
MEDFORD        CLOUDY    51  24  34 E6        29.88R
MERRILL        CLOUDY    51  23  34 E12       29.90S
$$

WIZ029-030-035-036-043>047-250100-
CENTRAL WISCONSIN

CITY           SKY/WX    TMP DP  RH WIND       PRES   REMARKS
WAUSAU         CLOUDY    50  25  37 E20       29.89R
6HR MIN TEMP:  50; 6HR MAX TEMP:  57;

MOSINEE        CLOUDY    52  21  30 SE13      29.91R
MARSHFIELD     CLOUDY    50  25  37 SE10      29.89R
6HR MIN TEMP:  50; 6HR MAX TEMP:  59; 6HR PCP: TRACE;

STEVENS POINT  CLOUDY    48  24  39 E15       29.93R
WAUPACA        CLOUDY    50  21  31 E14       29.96R
WAUTOMA        NOT AVBL
WISC RAPIDS    CLOUDY    52  12  20 S8        29.91S
6HR MIN TEMP:  52; 6HR MAX TEMP:  60;

CAMP DOUGLAS   CLOUDY    43  43 100 SE9       29.90F
$$

WIZ011>013-019>022-031-037>040-048>050-250100-
NORTHEAST WISCONSIN

CITY           SKY/WX    TMP DP  RH WIND       PRES   REMARKS
ANTIGO         CLOUDY    46  27  46 E13       29.93R
SHAWANO        CLOUDY    47  25  41 E12       29.97R
OCONTO         CLOUDY    41  26  53 SE8       30.00S
STURGEON BAY   CLOUDY    37  23  56 E8        30.03S WCI  31
6HR MIN TEMP:  37; 6HR MAX TEMP:  45;

GREEN BAY      CLOUDY    46  19  34 E9        29.99R
6HR MIN TEMP:  46; 6HR MAX TEMP:  54;

MANITOWOC      NOT AVBL
APPLETON       CLOUDY    45  12  26 E9        29.97R
CLINTONVILLE   CLOUDY    46  21  36 SE13      29.97R
OSHKOSH        CLOUDY    46  21  37 SE13      29.96R
6HR MIN TEMP:  46; 6HR MAX TEMP:  57;

$$

WIZ032>034-041-042-053>061-250100-
SOUTHWEST WISCONSIN

CITY           SKY/WX    TMP DP  RH WIND       PRES   REMARKS
LA CROSSE      LGT RAIN  46  42  86 SE7       29.86S
6HR MIN TEMP:  46; 6HR MAX TEMP:  56; 6HR PCP:  0.07;

SPARTA         DRIZZLE   44  40  86 E9        29.88F
VIROQUA        CLOUDY    42  42 100 SE17G24   29.84F
BOSCOBEL       CLOUDY    44  41  89 E9        29.88F
6HR MIN TEMP:  43; 6HR MAX TEMP:  53; 6HR PCP:  0.30;

PRAIRIE DU CHI CLOUDY    45  40  82 E8        29.84F
PLATTEVILLE    CLOUDY    44  40  85 E14       29.88R
$$

WIZ056-057-062-063-064-067-068-250100-
SOUTH CENTRAL WISCONSIN

CITY           SKY/WX    TMP DP  RH WIND       PRES   REMARKS
REEDSBURG      CLOUDY    42  39  90 SE7       29.92R
BARABOO/DELLS  RAIN      41  38  89 E6        29.93R
LONE ROCK      NOT AVBL
MINERAL POINT  LGT RAIN  43  39  87 E10       29.89S
MADISON        LGT RAIN  43  37  79 E12       29.92F
6HR MIN TEMP:  43; 6HR MAX TEMP:  54; 6HR PCP:  0.21;

MIDDLETON      CLOUDY    44  38  82 E9        29.91F
WATERTOWN      LGT RAIN  40  38  91 E7        29.96R
MONROE         DRIZZLE   43  37  81 E9        29.89F
JANESVILLE     LGT RAIN  45  39  81 E12       29.90F FOG
$$

WIZ051-052-058>065-066-070>072-250100-
SOUTHEAST WISCONSIN

CITY           SKY/WX    TMP DP  RH WIND       PRES   REMARKS
MILWAUKEE      CLOUDY    39  32  76 E7        29.97F WCI  34
6HR MIN TEMP:  39; 6HR MAX TEMP:  48; 6HR PCP:  0.13;

WAUKESHA       CLOUDY    37  32  81 E7        29.98S WCI  32
MILWAUKEE/TIMM DRIZZLE   39  32  75 SE5       29.98F
RACINE         LGT RAIN  40  34  79 E5        29.99F
6HR MIN TEMP:  40; 6HR MAX TEMP:  49; 6HR PCP:  0.09;

BURLINGTON     MIX PCPN  39  34  82 E8        29.95F WCI  33
KENOSHA        RAIN      40  35  83 E12       29.97F WCI  33
6HR MIN TEMP:  40; 6HR MAX TEMP:  52; 6HR PCP:  0.09;

FOND DU LAC    CLOUDY    45  25  45 S14       29.96S
6HR MIN TEMP:  45; 6HR MAX TEMP:  57; 6HR PCP: TRACE;

SHEBOYGAN      CLOUDY    39  26  59 E7        30.00R WCI  34
6HR MIN TEMP:  39; 6HR MAX TEMP:  49;

WEST BEND      LGT RAIN  37  30  75 E8        29.97F WCI  31
JUNEAU         LGT RAIN  40  35  83 E9        29.98R WCI  34
$$

LSZ147-162-250100-
LAKE SUPERIOR

STATION/POSITION TIME  TEMP    WIND        PRES    WAVE
                       AIR SEA DIR/SP/G            HT/PER
                 (UTC) (F)     (DEG/KT/KT) (MB)    (FT/S)
W MID LAKE BUOY  2250   35 34   60/ 17/ 21 1016.7F   3/ 4
DEVILS ISLAND    2300   35      90/ 12/ 13 1016.4S
PORT WING        2300   44      80/  6/  9 1014.2F
SAXON HARBOR     2340   38        CALM     1014.6S
$$

LMZ867-665-643>646-250100-
LAKE MICHIGAN

STATION/POSITION TIME  TEMP    WIND        PRES    WAVE
                       AIR SEA DIR/SP/G            HT/PER
                 (UTC) (F)     (DEG/KT/KT) (MB)    (FT/S)
CHAMBERS ISLAND  2300   40     120/  7/ 11 1016.3F
NORTHPORT PIER   2300   36     130/ 11/ 12 1016.6F
SISTER BAY       2347   38     150/  9/ 13   N/A
KEWAUNEE LAKESHO 2300   37      70/  7/ 13 1015.3F
SHEBOYGAN LAKESH 2300   37      50/  8/  9 1016.6F
PORT WASHINGTON  2340   40      40/  8/ 10 1016.3F
MILWAUKEE LAKESH 2300   39     170/  6/  8   N/A
KENOSHA   LAKESH 2300   41      90/  7/ 10 1015.6S
$$

TC  - TEMPERATURE IN CELSIUS
VSB - VISIBILITY IN STATUTE MILES
WCI - WIND CHILL INDEX
HX  - HEAT INDEX



USA.gov is the U.S. government's official web portal to all federal, state and local government web resources and services.